Search your local weather  

 

Hazardous Weather Conditions

Air Quality Alert issued August 9 at 8:44AM MST

Current Conditions: PHOENIX, ARIZONA

Fair


93.0 F

Last Updated on Aug 9 2022, 8:53 pm MST
Humidity: 33%
Wind Speed: NW 8.1 mph
Barometer 29.93 in
Dewpoint: 60.1 F
Visibility: 10.00 mi
Precip: --
Heat Index: 93 F
Wind Chill: NA
Current conditions at:

Phoenix, Phoenix-Deer Valley Municipal Airport, AZ (KDVT)

Lat: 33.69026 Lon: -112.06618

Local Radar Image active severe weather and emergency alerts image image weather storm and storm spotter reports image weather observation monitoring service image
Local
Radar
Active
Alerts
Storm Reports Weather
Monitoring

5 Day Forecast for PHOENIX, ARIZONA (85001)

Tuesday

Chance of T-storms

High 101 °F
Tuesday
Night
Chance of T-storms

Low 82 °F
Wednesday

Chance of T-storms

High 101 °F
Wednesday
Night
Chance of T-storms

Low 84 °F
Thursday

Chance of T-storms

High 103 °F
Thursday
Night
Chance of T-storms

Low 84 °F
Friday

Chance of T-storms

High 100 °F
Friday
Night
Chance of T-storms

Low 83 °F
Saturday

Chance of T-storms

High 100 °F

Sign-up For Email & Text Message Weather Alert Notification Services



Advertise Here

Observation History for PHOENIX, ARIZONA


Time Wind
(mph)
Vis
(mi)
Weather Precip (in) Temperature (F) Relative
Humidity
Wind
Chill
(F)
Heat
Index
(F)
Pressure
Air Dwpt altimeter
(in)
sea level
(mb)
8:53 pm MST NW 8.1 10.00 Fair -- 93.0 60.1 33% NA 93 29.93 1011.0
6:53 pm MST W 6.9 10.00 Fair -- 95.0 64.0 36% NA 97 29.89 1009.7
5:53 pm MST NW 6.9 10.00 Fair -- 97.0 63.0 33% NA 99 29.87 1008.8
4:53 pm MST NW 4.6 10.00 Fair -- 96.0 63.0 34% NA 97 29.88 1009.4
3:53 pm MST NW 10.4 10.00 Fair -- 96.0 63.0 34% NA 97 29.89 1009.7
2:53 pm MST 3.5 10.00 Fair -- 93.0 64.0 38% NA 95 29.91 1010.5
1:53 pm MST SW 8.1 10.00 Fair -- 90.0 64.9 44% NA 92 29.94 1011.2
12:53 pm MST 5.8 10.00 Fair -- 88.0 66.9 50% NA 91 29.97 1012.0
11:53 am MST SW 4.6 10.00 Fair -- 86.0 66.9 53% NA 89 30.00 1013.2
10:53 am MST N 0.0 10.00 Mostly Cloudy -- 85.0 68.0 57% NA 88 30.02 1013.9
9:53 am MST NW 3.5 10.00 Overcast -- 82.0 68.0 63% NA 85 30.02 1014.0
8:53 am MST N 0.0 10.00 Mostly Cloudy -- 79.0 70.0 74% NA NA 30.02 1014.0
7:53 am MST S 4.6 10.00 Fair -- 78.0 72.0 82% NA NA 30.02 1013.7
6:53 am MST SW 3.5 10.00 Fair -- 77.0 73.0 88% NA NA 30.00 1013.0
4:53 am MST NE 6.9 10.00 Light Rain -- 74.0 72.0 94% NA NA 29.97 1012.3
3:53 am MST NE 9.2 10.00 Thunderstorm in Vicinity Light Rain -- 73.0 72.0 96% NA NA 29.99 1013.1
2:53 am MST S 13.8 G 23.0 10.00 Thunderstorm in Vicinity -- 77.0 68.0 74% NA NA 30.00 1013.2
1:53 am MST SE 27.6 G 47.2 9.00 Partly Cloudy and Windy -- 81.0 66.0 61% NA 83 29.96 1011.7
12:53 am MST W 9.2 10.00 Fair -- 89.0 66.0 47% NA 91 29.91 1009.9
11:53 pm MST SW 6.9 10.00 Fair -- 90.0 66.9 47% NA 93 29.92 1010.4
10:53 pm MST W 11.5 10.00 Fair -- 91.0 66.0 44% NA 94 29.91 1010.0
9:53 pm MST W 10.4 10.00 Fair -- 93.0 64.0 38% NA 95 29.91 1009.9

Regional Weather Observation

Glendale, Glendale Municipal Airport, AZ (KGEU)

Partly Cloudy
97.0 F

Luke Air Force Base / Phoenix, AZ (KLUF)

Fair
92.0 F

Phoenix, Phoenix Sky Harbor International Airport, AZ (KPHX)

Mostly Cloudy
94.0 F

Goodyear Municipal, AZ (KGYR)

Partly Cloudy
95.0 F

Buckeye Municipal Airport, AZ (KBXK)

NULL
93.0 F

Scottsdale Airport, AZ (KSDL)

Fair
94.0 F

Advertise Here


Advertise Here